Location: Erba
(45.8000°N, 9.2500°E)
Time: 12:19:09
(UTC+02:00)

ISS - Pass Details

Date: 06 July 2020
Orbit: 417 x 420 km, 51.6° (Epoch: 02 July)

Event Time Altitude Azimuth Distance (km) Brightness Sun altitude
Exits shadow 03:23:14 30° 263° (W) 781 -2.7 -16.7°
Maximum altitude 03:24:42 64° 336° (NNW) 467 -3.4 -16.6°
Drops below altitude 10° 03:28:02 10° 58° (ENE) 1,497 0.0 -16.3°
Sets 03:30:09 0° 62° (ENE) 2,362 1.1 -16.1°
